FW4325 Guayama PR US current weather conditions

sailwx.info

Wind from 071 at 5 knots gusting 14

Air temperature 27.8° C
Dewpoint 23.8° C

Last reported at 2020-Aug-09 07:00 UTC.
Time now 2020-Aug-09 08:11 UTC

Location: N 17°59' W 066°08'.
View on Google Maps.

See reports from other nearby stations

  
Tides and Currents Weather Stations Pressure Air Temp Water Temp Dewpoint Dewpoint Depression Visibility Wind Speed Wind Dir Waves Ship Positions
date/time (UTC)wind fromknots sea level pressurealtimeterstation pressurevisibilityair tempwater tempwave heightnotes
2020-Aug-09 07:00 071 5 gusting 14 27.8
2020-Aug-09 06:47 069 6 gusting 13 27.8
2020-Aug-09 06:31 086 4 gusting 8 27.8
2020-Aug-09 06:16 080 3 gusting 10 27.8
2020-Aug-09 06:01 067 5 gusting 10 27.8
2020-Aug-09 05:47 090 6 gusting 11 27.8
2020-Aug-09 05:30 104 6 gusting 11 27.8
2020-Aug-09 05:15 082 3 gusting 12 28.3
2020-Aug-09 05:01 096 3 gusting 13 28.3
2020-Aug-09 04:45 081 6 gusting 13 27.8
2020-Aug-09 04:32 086 5 gusting 16 28.3
2020-Aug-09 04:15 045 6 gusting 14 27.8
2020-Aug-09 04:00 098 5 gusting 12 28.3
2020-Aug-09 03:45 047 6 gusting 13 28.3
2020-Aug-09 03:30 074 6 gusting 11 28.3
2020-Aug-09 03:15 071 6 gusting 11 27.8
2020-Aug-09 03:00 101 3 gusting 10 28.3
2020-Aug-09 02:45 077 4 gusting 8 28.3
2020-Aug-09 02:15 113 4 gusting 9 28.3
2020-Aug-09 02:02 114 5 gusting 10 28.3
2020-Aug-09 01:47 078 4 gusting 10 28.3
2020-Aug-09 01:33 059 3 gusting 8 28.3
2020-Aug-09 01:18 070 4 gusting 11 28.3
2020-Aug-09 01:01 080 4 gusting 12 28.9
2020-Aug-09 00:46 065 4 gusting 11 28.9
2020-Aug-09 00:31 088 5 gusting 11 28.9
2020-Aug-09 00:16 080 5 gusting 11 28.9
2020-Aug-09 00:02 093 7 gusting 12 28.9
2020-Aug-08 23:47 086 4 gusting 13 29.4
2020-Aug-08 23:32 096 6 gusting 10 29.4
2020-Aug-08 23:19 345 3 gusting 13 29.4
2020-Aug-08 23:02 121 6 gusting 12 29.4
2020-Aug-08 22:46 099 6 gusting 10 29.4
2020-Aug-08 22:31 123 5 gusting 11 29.4
2020-Aug-08 22:17 121 6 gusting 10 30.0
2020-Aug-08 22:01 101 6 gusting 11 30.6
2020-Aug-08 21:46 109 6 gusting 11 30.6
2020-Aug-08 21:31 092 9 gusting 13 30.6
2020-Aug-08 21:16 101 7 gusting 14 31.1
2020-Aug-08 21:01 089 7 gusting 13 31.1
2020-Aug-08 20:45 095 6 gusting 12 31.7
2020-Aug-08 20:30 115 9 gusting 15 31.7
2020-Aug-08 20:15 096 10 gusting 16 31.7
2020-Aug-08 20:00 065 7 gusting 14 31.7
2020-Aug-08 19:45 098 9 gusting 14 32.2
2020-Aug-08 19:31 107 9 gusting 19 31.7
2020-Aug-08 19:15 086 6 gusting 17 32.2
2020-Aug-08 19:00 079 8 gusting 13 32.2
2020-Aug-08 18:45 115 5 gusting 15 32.2
2020-Aug-08 18:30 076 8 gusting 14 32.2
2020-Aug-08 18:16 101 6 gusting 15 32.2
2020-Aug-08 18:01 064 8 gusting 15 32.2
2020-Aug-08 17:45 064 9 gusting 16 32.2
2020-Aug-08 17:31 117 8 gusting 15 32.2
2020-Aug-08 17:15 057 6 gusting 16 32.2
2020-Aug-08 17:00 076 6 gusting 16 32.2
2020-Aug-08 16:45 102 8 gusting 14 31.7
2020-Aug-08 16:30 116 10 gusting 17 31.7
2020-Aug-08 16:15 069 9 gusting 15 31.1
2020-Aug-08 16:00 036 6 gusting 17 31.7
2020-Aug-08 15:45 084 8 gusting 14 31.7
2020-Aug-08 15:30 067 7 gusting 13 31.7
2020-Aug-08 15:15 089 9 gusting 16 31.1
2020-Aug-08 15:00 084 11 gusting 19 31.1
2020-Aug-08 14:47 132 9 gusting 14 30.6
2020-Aug-08 14:31 090 8 gusting 16 30.6
2020-Aug-08 14:17 113 9 gusting 14 31.1
2020-Aug-08 14:01 108 9 gusting 17 30.6
2020-Aug-08 13:46 090 6 gusting 16 30.6
2020-Aug-08 13:32 079 8 gusting 15 30.0
2020-Aug-08 13:16 092 9 gusting 18 30.0
2020-Aug-08 13:01 084 10 gusting 15 29.4
2020-Aug-08 12:45 072 9 gusting 16 29.4
2020-Aug-08 12:31 052 5 gusting 14 28.9
2020-Aug-08 12:16 076 6 gusting 13 29.4
2020-Aug-08 12:00 069 5 gusting 11 28.9
2020-Aug-08 11:45 088 6 gusting 13 28.3
2020-Aug-08 11:30 092 6 gusting 12 28.3
2020-Aug-08 11:15 105 6 gusting 10 27.8
2020-Aug-08 11:00 096 6 gusting 11 27.8
2020-Aug-08 10:45 090 6 gusting 13 27.8
2020-Aug-08 10:30 073 4 gusting 10 27.8
2020-Aug-08 10:15 099 3 gusting 10 27.8
2020-Aug-08 10:00 080 6 gusting 11 27.8
2020-Aug-08 09:45 097 2 gusting 11 27.8
2020-Aug-08 09:30 084 2 gusting 7 27.8
2020-Aug-08 09:15 116 3 gusting 8 27.8
2020-Aug-08 09:00 026 5 gusting 12 27.8
2020-Aug-08 08:46 074 4 gusting 9 27.8
2020-Aug-08 08:32 083 5 gusting 10 27.8
2020-Aug-08 08:16 081 4 gusting 11 27.8
2020-Aug-08 08:02 105 6 gusting 13 27.8
2020-Aug-08 07:46 092 5 gusting 12 27.8
2020-Aug-08 07:32 084 5 gusting 10 27.8
2020-Aug-08 07:16 070 5 gusting 11 27.8
2020-Aug-08 07:01 081 3 gusting 9 27.8
2020-Aug-08 06:46 084 5 gusting 8 27.8
2020-Aug-08 06:31 056 6 gusting 10 27.8
2020-Aug-08 06:15 082 3 gusting 7 27.8
2020-Aug-08 06:01 075 4 gusting 12 27.8
2020-Aug-08 05:45 067 3 gusting 11 27.8
2020-Aug-08 05:31 079 2 gusting 8 27.8
2020-Aug-08 05:15 081 4 gusting 12 27.8
2020-Aug-08 05:00 089 2 gusting 8 27.8
2020-Aug-08 04:45 076 6 gusting 15 27.8
2020-Aug-08 04:30 046 6 gusting 12 27.8
2020-Aug-08 04:15 113 2 gusting 10 27.8
2020-Aug-08 04:00 093 5 gusting 12 27.8
2020-Aug-08 03:45 052 3 gusting 12 27.8
2020-Aug-08 03:30 100 3 gusting 7 27.8
2020-Aug-08 03:15 098 6 gusting 13 28.3
2020-Aug-08 03:00 076 3 gusting 11 28.3
2020-Aug-08 02:45 084 4 gusting 9 28.3
2020-Aug-08 02:30 089 6 gusting 13 28.3
2020-Aug-08 02:15 086 6 gusting 9 28.3
2020-Aug-08 01:49 092 3 gusting 8 28.3
2020-Aug-08 01:31 073 4 gusting 8 28.3
2020-Aug-08 01:30 061 3 gusting 7 28.3
2020-Aug-08 01:16 091 4 gusting 9 28.3
2020-Aug-08 01:01 069 5 gusting 10 28.3
2020-Aug-08 00:46 093 2 gusting 9 28.3
2020-Aug-08 00:31 086 5 gusting 9 28.3
2020-Aug-08 00:15 084 4 gusting 11 28.3
2020-Aug-08 00:01 069 4 gusting 8 28.3
2020-Aug-07 23:47 086 1 gusting 10 28.3
2020-Aug-07 23:32 086 3 gusting 9 28.3
2020-Aug-07 23:16 096 5 gusting 8 28.9
2020-Aug-07 23:03 107 4 gusting 11 28.9
2020-Aug-07 22:47 070 5 gusting 12 28.9
2020-Aug-07 22:31 076 5 gusting 11 29.4
2020-Aug-07 22:16 084 6 gusting 11 29.4
2020-Aug-07 22:01 080 6 gusting 10 29.4
2020-Aug-07 21:45 099 3 gusting 11 29.4
2020-Aug-07 21:31 056 5 gusting 12 29.4
2020-Aug-07 21:16 080 6 gusting 11 30.0
2020-Aug-07 21:01 082 6 gusting 12 29.4
2020-Aug-07 20:46 142 7 gusting 12 30.0
2020-Aug-07 20:31 102 6 gusting 13 30.0
2020-Aug-07 20:16 117 7 gusting 15 30.6
2020-Aug-07 20:00 132 8 gusting 15 30.6
2020-Aug-07 19:45 132 7 gusting 13 30.6
2020-Aug-07 19:30 130 8 gusting 15 31.1
2020-Aug-07 19:15 106 8 gusting 14 31.7
2020-Aug-07 19:00 091 8 gusting 13 31.7
2020-Aug-07 18:45 107 7 gusting 16 31.1
2020-Aug-07 18:30 103 9 gusting 15 31.7
2020-Aug-07 18:15 144 7 gusting 15 31.1
2020-Aug-07 18:00 101 7 gusting 17 31.1
2020-Aug-07 17:45 107 6 gusting 14 31.1
2020-Aug-07 17:30 120 6 gusting 17 31.1
2020-Aug-07 17:15 108 8 gusting 15 30.6
2020-Aug-07 17:00 103 6 gusting 15 30.6
2020-Aug-07 16:45 087 8 gusting 13 31.1
2020-Aug-07 16:30 069 6 gusting 13 31.1
2020-Aug-07 16:15 078 7 gusting 13 30.6
2020-Aug-07 16:00 134 10 gusting 15 30.6
2020-Aug-07 15:45 148 6 gusting 14 31.1
2020-Aug-07 15:32 095 6 gusting 13 31.1
2020-Aug-07 15:16 119 7 gusting 13 30.6
2020-Aug-07 15:02 078 9 gusting 16 30.6
2020-Aug-07 14:46 049 6 gusting 15 31.1
2020-Aug-07 14:31 085 8 gusting 14 30.6
2020-Aug-07 14:16 121 6 gusting 16 30.6
2020-Aug-07 14:01 055 7 gusting 13 30.0
2020-Aug-07 13:46 078 6 gusting 15 30.0
2020-Aug-07 13:30 057 8 gusting 15 29.4
2020-Aug-07 13:15 078 6 gusting 14 29.4
2020-Aug-07 13:02 085 8 gusting 17 29.4
2020-Aug-07 12:45 089 9 gusting 17 28.9
2020-Aug-07 12:30 078 6 gusting 15 28.9
2020-Aug-07 12:15 084 6 gusting 11 29.4
2020-Aug-07 12:00 080 6 gusting 12 28.9
2020-Aug-07 11:45 084 6 gusting 11 28.3
2020-Aug-07 11:30 092 5 gusting 13 28.3
2020-Aug-07 11:15 114 5 gusting 9 28.3
2020-Aug-07 11:00 079 3 gusting 11 27.8
2020-Aug-07 10:46 072 4 gusting 9 27.2
2020-Aug-07 10:31 079 4 gusting 11 27.2
2020-Aug-07 10:16 078 3 gusting 8 27.2
2020-Aug-07 10:01 083 3 gusting 9 27.2
2020-Aug-07 09:46 082 4 gusting 10 27.2
2020-Aug-07 09:31 052 4 gusting 9 27.2
2020-Aug-07 09:16 084 3 gusting 11 27.2
2020-Aug-07 09:00 042 4 gusting 9 27.2
2020-Aug-07 08:45 078 4 gusting 9 27.2
2020-Aug-07 08:31 083 5 gusting 8 27.2
2020-Aug-07 08:16 082 4 gusting 8 27.2
2020-Aug-07 08:01 098 2 gusting 7 26.7